FW7508 Weather Reports


time (UTC)temp
C
wind
direction
speed
KPH
gust
KPH
rain 1hr
cm
rain 24hr
cm
rain mn
cm
humidity
%
barometer
mb
20260507183220 9 275 3.2 3.2 0.00 0.00 0.00 51 1016.6
20260507182717 8 262 1.6 3.2 0.00 0.00 0.00 51 1016.5
20260507182212 8 274 8.0 9.7 0.00 0.00 0.00 47 1016.3
20260507181710 8 264 1.6 1.6 0.00 0.00 0.00 54 1016.6
20260507181206 8 273 3.2 3.2 0.00 0.00 0.00 51 1016.7
20260507180702 9 238 4.8 4.8 0.00 0.00 0.00 49 1016.2
20260507180200 9 273 6.4 9.7 0.00 0.00 0.00 49 1016.2
20260507175655 10 284 1.6 1.6 0.00 0.00 0.00 45 1016.6
20260507175153 10 284 1.6 3.2 0.00 0.00 0.00 47 1016.6
20260507174650 9 255 3.2 3.2 0.00 0.00 0.00 49 1016.6
20260507174148 8 284 0.0 0.0 0.00 0.00 0.00 47 1016.6
20260507173645 8 286 0.0 1.6 0.00 0.00 0.00 49 1016.7
20260507173141 8 263 0.0 1.6 0.00 0.00 0.00 47 1016.7
20260507172638 9 277 4.8 8.0 0.00 0.00 0.00 47 1016.8
20260507172135 8 273 3.2 3.2 0.00 0.00 0.00 48 1017.0
20260507171629 8 253 1.6 1.6 0.00 0.00 0.00 47 1017.1
20260507171127 8 277 1.6 1.6 0.00 0.00 0.00 48 1017.1
20260507170624 8 290 1.6 3.2 0.00 0.00 0.00 48 1017.2
20260507170121 8 298 3.2 3.2 0.00 0.00 0.00 48 1017.3
20260507165616 8 281 3.2 3.2 0.00 0.00 0.00 49 1017.1
20260507165113 8 294 1.6 3.2 0.00 0.00 0.00 49 1017.4
20260507164609 8 281 3.2 3.2 0.00 0.00 0.00 51 1017.3
20260507164106 8 280 1.6 1.6 0.00 0.00 0.00 52 1017.4
20260507163603 8 294 0.0 0.0 0.00 0.00 0.00 53 1017.6
20260507163101 8 271 6.4 9.7 0.00 0.00 0.00 50 1017.5
20260507162556 8 260 3.2 3.2 0.00 0.00 0.00 51 1017.7
20260507162053 8 44 4.8 4.8 0.00 0.00 0.00 54 1017.5
20260507161549 8 281 1.6 3.2 0.00 0.00 0.00 53 1017.8
20260507161046 8 283 1.6 1.6 0.00 0.00 0.00 56 1017.7
20260507160542 7 317 4.8 4.8 0.00 0.00 0.00 58 1017.6
20260507160039 8 278 4.8 4.8 0.00 0.00 0.00 61 1018.0
20260507155534 8 307 3.2 3.2 0.00 0.00 0.00 59 1017.9
20260507155032 7 261 3.2 3.2 0.00 0.00 0.00 58 1017.8
20260507154528 8 277 4.8 8.0 0.00 0.00 0.00 62 1017.8
20260507154025 8 0 8.0 9.7 0.00 0.00 0.00 57 1017.8
20260507153522 8 317 4.8 4.8 0.00 0.00 0.00 61 1018.1
20260507153018 8 240 3.2 4.8 0.00 0.00 0.00 63 1018.0
20260507152514 7 263 3.2 4.8 0.00 0.00 0.00 64 1018.0
20260507152011 8 339 8.0 9.7 0.00 0.00 0.00 65 1018.0
20260507151507 7 282 3.2 3.2 0.00 0.00 0.00 66 1018.0
20260507151004 7 241 6.4 11.3 0.00 0.00 0.00 65 1017.9
20260507150501 7 276 4.8 8.0 0.00 0.00 0.00 67 1017.9
20260507145957 7 245 6.4 9.7 0.00 0.00 0.00 65 1017.9
20260507145453 8 268 4.8 4.8 0.00 0.00 0.00 65 1017.7
20260507144950 8 273 3.2 3.2 0.00 0.00 0.00 65 1017.8
20260507144447 7 278 3.2 4.8 0.00 0.00 0.00 66 1017.7
20260507143944 7 330 3.2 3.2 0.00 0.00 0.00 67 1017.9
20260507143442 7 302 1.6 3.2 0.00 0.00 0.00 69 1017.6
20260507142938 7 333 3.2 4.8 0.00 0.00 0.00 71 1017.7
20260507142434 7 252 4.8 4.8 0.00 0.00 0.00 70 1018.1
20260507141931 7 282 4.8 4.8 0.00 0.00 0.00 70 1017.8
20260507141427 7 259 4.8 4.8 0.00 0.00 0.00 69 1017.9
20260507140924 7 325 1.6 3.2 0.00 0.00 0.00 70 1017.8
20260507140420 7 280 1.6 3.2 0.00 0.00 0.00 71 1017.8
20260507135918 6 333 6.4 8.0 0.00 0.00 0.00 71 1017.8
20260507135414 7 235 4.8 8.0 0.00 0.00 0.00 71 1017.9
20260507134912 6 323 3.2 3.2 0.00 0.00 0.00 73 1017.9
20260507134408 7 322 6.4 8.0 0.00 0.00 0.00 71 1017.9
20260507133904 6 278 6.4 9.7 0.00 0.00 0.00 72 1017.6
20260507133400 6 275 4.8 9.7 0.00 0.00 0.00 71 1017.5
20260507132859 7 280 4.8 4.8 0.00 0.00 0.00 71 1017.7
20260507132355 6 304 4.8 4.8 0.00 0.00 0.00 70 1017.9
20260507131852 7 266 6.4 8.0 0.00 0.00 0.00 69 1017.6
20260507131349 7 303 4.8 8.0 0.00 0.00 0.00 69 1017.6
20260507130846 7 313 1.6 1.6 0.00 0.00 0.00 70 1017.5
20260507130343 7 273 4.8 9.7 0.00 0.00 0.00 70 1017.4
20260507125842 6 357 1.6 3.2 0.00 0.00 0.00 71 1017.6
20260507125338 7 297 3.2 3.2 0.00 0.00 0.00 70 1017.5
20260507124836 6 277 1.6 1.6 0.00 0.00 0.00 70 1017.2
20260507124332 6 301 1.6 1.6 0.00 0.00 0.00 71 1017.2
20260507123831 6 305 3.2 4.8 0.00 0.00 0.00 71 1017.0
20260507123328 6 271 4.8 4.8 0.00 0.00 0.00 71 1017.3
20260507122824 6 290 1.6 3.2 0.00 0.00 0.00 71 1017.2
20260507122319 6 290 3.2 4.8 0.00 0.00 0.00 72 1017.2
20260507121816 6 284 1.6 1.6 0.00 0.00 0.00 71 1017.2
20260507121312 6 281 1.6 1.6 0.00 0.00 0.00 72 1017.1
20260507120808 6 249 4.8 4.8 0.00 0.00 0.00 72 1017.1
20260507120305 6 309 3.2 3.2 0.00 0.00 0.00 73 1017.2
20260507115801 6 295 0.0 1.6 0.00 0.00 0.00 74 1017.2
20260507115257 5 282 4.8 4.8 0.00 0.00 0.00 74 1017.0
20260507114753 5 289 3.2 4.8 0.00 0.00 0.00 75 1017.1
20260507114250 5 282 3.2 3.2 0.00 0.00 0.00 75 1016.8
20260507113748 5 281 1.6 3.2 0.00 0.00 0.00 75 1016.9
20260507113244 5 289 3.2 3.2 0.00 0.00 0.00 76 1016.9
20260507112742 5 290 1.6 1.6 0.00 0.00 0.00 77 1016.9
20260507112238 5 287 0.0 1.6 0.00 0.00 0.00 76 1017.0
20260507111736 5 288 1.6 3.2 0.00 0.00 0.00 76 1016.9
20260507111232 5 285 1.6 1.6 0.00 0.00 0.00 77 1016.8
20260507110728 5 284 1.6 3.2 0.00 0.00 0.00 78 1016.5
20260507110226 5 284 1.6 1.6 0.00 0.00 0.00 78 1016.6
20260507105722 4 284 3.2 3.2 0.00 0.00 0.00 79 1016.7
20260507105218 4 278 1.6 1.6 0.00 0.00 0.00 80 1016.6
20260507104716 4 287 0.0 1.6 0.00 0.00 0.00 80 1016.5
20260507104212 3 284 1.6 1.6 0.00 0.00 0.00 82 1016.5
20260507103708 3 284 0.0 1.6 0.00 0.00 0.00 83 1016.1
20260507103205 3 288 0.0 0.0 0.00 0.00 0.00 83 1016.5
20260507102701 3 284 0.0 1.6 0.00 0.00 0.00 83 1016.5
20260507102158 3 290 0.0 0.0 0.00 0.00 0.00 82 1016.2
20260507101654 3 291 0.0 0.0 0.00 0.00 0.00 81 1016.2
20260507101149 4 290 0.0 0.0 0.00 0.00 0.00 81 1016.2
20260507100647 4 333 0.0 0.0 0.00 0.00 0.00 80 1016.1
20260507100145 4 290 0.0 0.0 0.00 0.00 0.00 79 1016.2
20260507095643 4 283 0.0 0.0 0.00 0.00 0.00 78 1016.1
20260507095139 5 284 0.0 0.0 0.00 0.00 0.00 77 1016.0
20260507094636 5 284 0.0 0.0 0.00 0.00 0.00 77 1016.2
20260507094132 5 316 1.6 1.6 0.00 0.00 0.00 77 1016.1
20260507093630 5 278 1.6 1.6 0.00 0.00 0.00 76 1016.2
20260507093129 5 292 1.6 1.6 0.00 0.00 0.00 75 1016.1
20260507092625 5 293 1.6 1.6 0.00 0.00 0.00 74 1016.2
20260507092121 5 289 0.0 0.0 0.00 0.00 0.00 73 1016.1
20260507091618 5 293 0.0 1.6 0.00 0.00 0.00 72 1016.0
20260507091108 5 291 0.0 1.6 0.00 0.00 0.00 74 1016.1
20260507090604 5 278 1.6 3.2 0.00 0.00 0.00 74 1016.1
20260507085558 5 311 1.6 1.6 0.00 0.00 0.00 73 1016.3
20260507085054 5 286 0.0 1.6 0.00 0.00 0.00 73 1016.2
20260507084552 6 301 1.6 1.6 0.00 0.00 0.00 72 1016.5
20260507084049 6 292 0.0 0.0 0.00 0.00 0.00 72 1016.6
20260507083545 6 296 1.6 1.6 0.00 0.00 0.00 72 1016.6
20260507083042 6 284 1.6 1.6 0.00 0.00 0.00 72 1016.5
20260507082538 6 293 0.0 0.0 0.00 0.00 0.00 72 1016.6
20260507082035 6 291 1.6 1.6 0.00 0.00 0.00 72 1016.2
20260507081531 6 292 1.6 3.2 0.00 0.00 0.00 71 1016.5
20260507081028 6 296 1.6 1.6 0.00 0.00 0.00 71 1016.8
20260507080524 6 285 1.6 3.2 0.00 0.00 0.00 70 1016.8
20260507080021 6 280 1.6 1.6 0.00 0.00 0.00 70 1016.5
20260507075516 6 267 3.2 3.2 0.00 0.00 0.00 70 1016.6
20260507075012 6 304 1.6 1.6 0.00 0.00 0.00 70 1016.7
20260507074509 6 285 0.0 0.0 0.00 0.00 0.00 70 1016.7
20260507074008 6 279 3.2 3.2 0.00 0.00 0.00 70 1016.8
20260507073503 6 293 0.0 1.6 0.00 0.00 0.00 70 1016.6
20260507073000 6 292 0.0 0.0 0.00 0.00 0.00 70 1016.8
20260507072458 6 276 1.6 1.6 0.00 0.00 0.00 70 1016.6
20260507071954 6 286 0.0 1.6 0.00 0.00 0.00 71 1016.7
20260507071452 6 7 6.4 11.3 0.00 0.00 0.00 70 1016.8
20260507070948 6 290 1.6 1.6 0.00 0.00 0.00 70 1016.6
20260507070446 6 306 0.0 0.0 0.00 0.00 0.00 69 1016.6
20260507065942 6 264 1.6 3.2 0.00 0.00 0.00 69 1016.6
20260507065439 6 242 3.2 4.8 0.00 0.00 0.00 69 1016.5
20260507064936 6 297 0.0 0.0 0.00 0.00 0.00 68 1016.8
20260507064435 6 293 1.6 1.6 0.00 0.00 0.00 69 1016.8
20260507063932 6 299 0.0 0.0 0.00 0.00 0.00 68 1016.9
20260507063429 6 282 4.8 4.8 0.00 0.00 0.00 67 1016.9
20260507062926 6 298 1.6 1.6 0.00 0.00 0.00 67 1016.9
20260507062423 6 316 0.0 1.6 0.00 0.00 0.00 67 1017.1
20260507061921 6 288 3.2 4.8 0.00 0.00 0.00 67 1016.9
20260507061418 6 285 3.2 4.8 0.00 0.00 0.00 67 1016.9
20260507060917 6 303 0.0 0.0 0.00 0.00 0.00 68 1017.0
20260507060413 6 258 3.2 3.2 0.00 0.00 0.00 69 1016.8
20260507055910 6 269 1.6 1.6 0.00 0.00 0.00 68 1017.0
20260507055404 6 308 0.0 1.6 0.00 0.00 0.00 68 1016.9
20260507054902 6 284 1.6 3.2 0.00 0.00 0.00 68 1016.9
20260507054358 7 310 3.2 3.2 0.00 0.00 0.00 67 1016.9
20260507053855 7 276 1.6 3.2 0.00 0.00 0.00 68 1017.0
20260507053353 7 300 1.6 1.6 0.00 0.00 0.00 68 1017.1
20260507052852 7 354 4.8 4.8 0.00 0.00 0.00 68 1016.8
20260507052348 7 278 1.6 1.6 0.00 0.00 0.00 68 1017.1
20260507051845 7 297 0.0 1.6 0.00 0.00 0.00 67 1017.1
20260507051343 7 283 6.4 9.7 0.00 0.00 0.00 66 1017.0
20260507050839 7 330 1.6 4.8 0.00 0.00 0.00 67 1017.2
20260507050336 7 289 4.8 4.8 0.00 0.00 0.00 66 1016.8
20260507045833 7 290 3.2 4.8 0.00 0.00 0.00 68 1017.0
20260507045329 7 277 1.6 3.2 0.00 0.00 0.00 67 1017.0
20260507044827 7 356 0.0 1.6 0.00 0.00 0.00 69 1017.0
20260507044323 7 6 4.8 8.0 0.00 0.00 0.00 69 1016.7
20260507043819 7 271 1.6 1.6 0.00 0.00 0.00 69 1017.0
20260507043316 7 282 0.0 1.6 0.00 0.00 0.00 70 1016.8
20260507042812 7 284 1.6 1.6 0.00 0.00 0.00 69 1016.8
20260507042308 7 286 3.2 4.8 0.00 0.00 0.00 67 1016.9
20260507041805 7 287 1.6 1.6 0.00 0.00 0.00 67 1016.6
20260507041302 7 287 0.0 0.0 0.00 0.00 0.00 67 1016.8
20260507040759 7 288 1.6 1.6 0.00 0.00 0.00 66 1016.6
20260507040255 7 287 0.0 0.0 0.00 0.00 0.00 67 1016.9
20260507035751 7 285 1.6 1.6 0.00 0.00 0.00 67 1016.9
20260507035246 7 292 0.0 1.6 0.00 0.00 0.00 66 1016.9
20260507034744 7 313 3.2 3.2 0.00 0.00 0.00 65 1016.8
20260507034241 7 289 1.6 1.6 0.00 0.00 0.00 65 1016.6
20260507033739 8 288 0.0 0.0 0.00 0.00 0.00 64 1016.7
20260507033236 7 302 1.6 3.2 0.00 0.00 0.00 64 1016.8
20260507032734 8 288 0.0 1.6 0.00 0.00 0.00 63 1016.8
20260507032230 7 287 3.2 3.2 0.00 0.00 0.00 64 1016.7
20260507031726 7 286 0.0 0.0 0.00 0.00 0.00 65 1016.6
20260507031223 7 287 0.0 0.0 0.00 0.00 0.00 65 1016.8
20260507030720 7 287 0.0 0.0 0.00 0.00 0.00 65 1016.8
20260507030218 7 287 0.0 0.0 0.00 0.00 0.00 65 1016.7
20260507025714 7 287 0.0 0.0 0.00 0.00 0.00 65 1016.8
20260507025212 7 287 0.0 0.0 0.00 0.00 0.00 63 1016.8
20260507024710 7 276 1.6 1.6 0.00 0.00 0.00 62 1016.9
20260507024207 8 288 1.6 1.6 0.00 0.00 0.00 60 1016.8
20260507023702 8 285 0.0 1.6 0.00 0.00 0.00 59 1016.8
20260507023159 8 289 1.6 1.6 0.00 0.00 0.00 59 1016.8
20260507022656 8 290 0.0 0.0 0.00 0.00 0.00 58 1016.9
20260507022152 8 285 0.0 1.6 0.00 0.00 0.00 58 1016.7
20260507021649 8 285 0.0 0.0 0.00 0.00 0.00 57 1016.7
20260507021144 8 286 0.0 1.6 0.00 0.00 0.00 57 1016.6
20260507020643 8 268 3.2 3.2 0.00 0.00 0.00 56 1016.3
20260507020138 8 286 0.0 0.0 0.00 0.00 0.00 56 1016.7
20260507015637 8 287 1.6 1.6 0.00 0.00 0.00 56 1016.7
20260507015134 8 285 0.0 1.6 0.00 0.00 0.00 57 1016.7
20260507014630 8 284 1.6 1.6 0.00 0.00 0.00 56 1016.5
20260507014126 8 289 1.6 1.6 0.00 0.00 0.00 57 1016.6
20260507013623 8 288 0.0 0.0 0.00 0.00 0.00 57 1016.6
20260507013120 8 287 0.0 0.0 0.00 0.00 0.00 58 1016.5
20260507012618 8 289 0.0 0.0 0.00 0.00 0.00 58 1016.5
20260507012113 8 289 0.0 0.0 0.00 0.00 0.00 57 1016.5
20260507011611 8 284 0.0 0.0 0.00 0.00 0.00 56 1016.5
20260507011107 8 289 0.0 0.0 0.00 0.00 0.00 56 1016.2
20260507010602 8 287 0.0 0.0 0.00 0.00 0.00 55 1016.0
20260507010058 8 281 1.6 1.6 0.00 0.00 0.00 55 1016.3
20260507005556 8 285 0.0 0.0 0.00 0.00 0.00 54 1016.2
20260507005052 8 283 0.0 0.0 0.00 0.00 0.00 54 1016.3
20260507004549 8 283 0.0 0.0 0.00 0.00 0.00 53 1016.1
20260507004046 8 286 0.0 1.6 0.00 0.00 0.00 53 1016.0
20260507003542 8 287 0.0 0.0 0.00 0.00 0.00 52 1016.1
20260507003037 8 287 0.0 0.0 0.00 0.00 0.00 52 1016.1
20260507002534 8 289 0.0 0.0 0.00 0.00 0.00 52 1016.0
20260507002030 8 281 0.0 0.0 0.00 0.00 0.00 52 1016.2
20260507001527 8 280 0.0 0.0 0.00 0.00 0.00 51 1016.0
20260507001025 9 288 0.0 0.0 0.00 0.00 0.00 51 1016.1
20260507000520 9 273 1.6 1.6 0.00 0.00 0.00 51 1016.0
20260507000016 9 282 0.0 0.0 0.00 0.00 0.00 50 1015.9
20260506235514 9 284 0.0 0.0 0.00 0.00 0.00 50 1015.9
20260506235009 9 285 0.0 0.0 0.00 0.00 0.00 48 1016.0
20260506234507 9 287 1.6 1.6 0.00 0.00 0.00 49 1016.0
20260506234004 9 277 1.6 1.6 0.00 0.00 0.00 48 1016.1
20260506233501 9 286 1.6 1.6 0.00 0.00 0.00 47 1016.0
20260506232957 9 288 1.6 1.6 0.00 0.00 0.00 48 1016.0
20260506232454 9 285 1.6 1.6 0.00 0.00 0.00 47 1016.1
20260506231949 9 294 1.6 1.6 0.00 0.00 0.00 47 1016.3
20260506231446 10 284 1.6 1.6 0.00 0.00 0.00 47 1016.2
20260506230938 10 286 1.6 1.6 0.00 0.00 0.00 47 1016.1
20260506230434 10 290 0.0 0.0 0.00 0.00 0.00 47 1016.2
20260506225931 10 272 1.6 3.2 0.00 0.00 0.00 49 1016.3
20260506225429 10 289 1.6 1.6 0.00 0.00 0.00 48 1016.1
20260506224926 10 206 1.6 8.0 0.00 0.00 0.00 47 1016.2
20260506224423 10 291 1.6 1.6 0.00 0.00 0.00 47 1016.0
20260506223919 10 290 0.0 1.6 0.00 0.00 0.00 46 1016.2
20260506223415 10 285 0.0 0.0 0.00 0.00 0.00 47 1016.1
20260506222912 10 281 1.6 1.6 0.00 0.00 0.00 44 1016.3
20260506222409 10 276 1.6 3.2 0.00 0.00 0.00 44 1016.2
20260506221906 10 288 3.2 3.2 0.00 0.00 0.00 45 1016.2
20260506221402 10 278 1.6 1.6 0.00 0.00 0.00 46 1016.2
20260506220900 10 279 3.2 3.2 0.00 0.00 0.00 45 1016.2
20260506220355 10 282 1.6 1.6 0.00 0.00 0.00 45 1016.2
20260506215852 10 278 1.6 3.2 0.00 0.00 0.00 45 1016.1
20260506215348 10 272 1.6 3.2 0.00 0.00 0.00 44 1016.0
20260506214844 11 289 3.2 3.2 0.00 0.00 0.00 41 1015.9
20260506214341 11 288 3.2 3.2 0.00 0.00 0.00 42 1016.0
20260506213839 11 290 4.8 4.8 0.00 0.00 0.00 41 1015.9
20260506213336 11 266 3.2 3.2 0.00 0.00 0.00 41 1016.1
20260506212833 11 282 3.2 3.2 0.00 0.00 0.00 39 1016.1
20260506212329 11 286 3.2 4.8 0.00 0.00 0.00 41 1016.0
20260506211824 12 283 4.8 4.8 0.00 0.00 0.00 40 1016.0
20260506211320 12 270 6.4 8.0 0.00 0.00 0.00 38 1016.0
20260506210818 11 275 6.4 8.0 0.00 0.00 0.00 40 1016.0
20260506210315 12 277 3.2 8.0 0.00 0.00 0.00 38 1016.1
20260506205812 12 275 1.6 1.6 0.00 0.00 0.00 40 1016.1
20260506205308 12 289 1.6 3.2 0.00 0.00 0.00 40 1016.1
20260506204804 12 273 4.8 4.8 0.00 0.00 0.00 40 1016.1
20260506204303 12 248 3.2 4.8 0.00 0.00 0.00 40 1016.0
20260506203800 12 274 3.2 3.2 0.00 0.00 0.00 39 1016.2
20260506203257 12 289 3.2 3.2 0.00 0.00 0.00 39 1016.2
20260506202754 12 278 3.2 4.8 0.00 0.00 0.00 41 1016.3
20260506202251 11 280 1.6 3.2 0.00 0.00 0.00 41 1016.6
20260506201747 11 285 4.8 4.8 0.00 0.00 0.00 42 1016.6
20260506201244 11 279 1.6 3.2 0.00 0.00 0.00 41 1016.7
20260506200741 12 266 3.2 3.2 0.00 0.00 0.00 42 1016.6
20260506200237 12 284 1.6 3.2 0.00 0.00 0.00 41 1016.6
20260506195734 12 277 4.8 4.8 0.00 0.00 0.00 41 1016.7
20260506195230 12 263 3.2 3.2 0.00 0.00 0.00 40 1016.8
20260506194728 12 269 4.8 4.8 0.00 0.00 0.00 39 1016.7
20260506194224 12 275 1.6 1.6 0.00 0.00 0.00 40 1016.8
20260506193722 11 304 6.4 8.0 0.00 0.00 0.00 40 1016.7
20260506193219 12 263 1.6 1.6 0.00 0.00 0.00 40 1016.6
20260506192715 11 282 1.6 1.6 0.00 0.00 0.00 41 1016.7
20260506192212 11 253 1.6 1.6 0.00 0.00 0.00 40 1016.7
20260506191709 11 272 0.0 1.6 0.00 0.00 0.00 41 1016.8
20260506191205 11 274 3.2 3.2 0.00 0.00 0.00 40 1016.5
20260506190703 12 326 6.4 8.0 0.00 0.00 0.00 39 1016.7
20260506190159 12 278 4.8 4.8 0.00 0.00 0.00 39 1016.7
20260506185656 11 260 3.2 3.2 0.00 0.00 0.00 40 1016.8
20260506185152 12 260 4.8 4.8 0.00 0.00 0.00 39 1016.8
20260506184650 11 302 3.2 3.2 0.00 0.00 0.00 41 1016.7
20260506184147 11 271 3.2 4.8 0.00 0.00 0.00 40 1016.6
20260506183643 11 272 3.2 3.2 0.00 0.00 0.00 39 1016.6